Content
SEND FEEDBACK

Daily
Averages
Monthly
Summary
United States of America

BUCHANAN, VIRGINIA


Home > North America > United States > Virginia
Elevation: 987 feet     Latitude: 37 32N     Longitude: 079 41W

WEATHER
 
SELECT A DAY
Number of Records: 188,836;   Date Range: 1/1/95 - 7/22/14
 
SHARE

PRINT THIS DATA

[ ← Previous Day ]
WEATHER ALMANAC - JANUARY 31, 2013
[ Next Day → ]
[ °C ]   °F
Weather ElementAverageHighLow
Temperature37.9 °F48.9 °F (1:54 am)33.1 °F (11:54 pm)
Dewpoint19.6 °F39 °F (1:54 am)14 °F (12:54 pm)
Humidity48.2 %69 % (1:54 am)36 % (1:54 pm)
Barometer29.79 in29.95 in (6:54 pm)29.41 in (1:54 am)
Wind Speed16.4 mph26.5 mph (5:54 am)
Wind Gust39.1 mph (3:54 am)
Weather ElementAverage
Visibility10 mi
Wind DirectionWSW (256.5 °)

Weather ElementTotal
Precipitation---
Heating Degree Days24 (Base 65)
Averaged from 23 records on January 31, 2013
WEATHER CONDITIONS BREAKOUT
WIND DIRECTION BREAKOUT
WEATHER BY HOUR - JANUARY 31, 2013
[ °C ]   °F
Local TimeTemperatureDewpointHumidityBarometerVisibilityWind DirectionWind SpeedGust SpeedPrecipitationEventsConditions
1:54 AM48.9 °F39.0 °F69 %29.41 in10.0 miWSW (240°)12.7 mph24.2 mph0.00 inScattered Clouds
2:54 AM46.0 °F34.0 °F63 %29.44 in10.0 miWSW (250°)10.4 mph21.9 mph0.00 inOvercast
3:54 AM44.1 °F30.0 °F58 %29.49 in10.0 miWNW (290°)24.2 mph39.1 mphMostly Cloudy
4:54 AM41.0 °F26.1 °F55 %29.56 in10.0 miWNW (300°)25.3 mph32.2 mphPartly Cloudy
5:54 AM39.0 °F21.0 °F49 %29.63 in10.0 miWNW (300°)26.5 mph34.5 mphOvercast
6:54 AM37.9 °F19.9 °F48 %29.67 in10.0 miWest (280°)15.0 mph21.9 mphOvercast
7:54 AM36.0 °F18.0 °F48 %29.72 in10.0 miWest (270°)15.0 mph26.5 mphMostly Cloudy
8:54 AM37.0 °F17.1 °F44 %29.76 in10.0 miWNW (290°)21.9 mph36.8 mphMostly Cloudy
9:54 AM37.9 °F19.0 °F47 %29.80 in10.0 miWest (270°)17.3 mph34.5 mphOvercast
10:54 AM37.0 °F19.9 °F50 %29.83 in10.0 miWest (260°)21.9 mph32.2 mphOvercast
11:54 AM39.0 °F16.0 °F39 %29.83 in10.0 miWest (270°)24.2 mph38.0 mphMostly Cloudy
12:54 PM37.9 °F14.0 °F38 %29.83 in10.0 miWNW (290°)19.6 mph34.5 mphMostly Cloudy
1:54 PM39.9 °F15.1 °F36 %29.84 in10.0 miWest (270°)21.9 mph35.7 mphMostly Cloudy
2:54 PM37.0 °F16.0 °F42 %29.88 in10.0 miWNW (290°)25.3 mph36.8 mphMostly Cloudy
3:54 PM36.0 °F15.1 °F43 %29.89 in10.0 miWest (260°)23.0 mph32.2 mph0.00 inOvercast
4:54 PM36.0 °F15.1 °F43 %29.92 in10.0 miWest (270°)23.0 mph34.5 mphMostly Cloudy
5:54 PM35.1 °F16.0 °F46 %29.94 in10.0 miWest (270°)15.0 mph24.2 mphMostly Cloudy
6:54 PM35.1 °F15.1 °F44 %29.95 in10.0 miWest (260°)8.1 mph19.6 mphMostly Cloudy
7:54 PM35.1 °F14.0 °F42 %29.95 in10.0 miWest (270°)6.9 mphScattered Clouds
8:54 PM34.0 °F17.1 °F50 %29.94 in10.0 miWest (260°)9.2 mphPartly Cloudy
9:54 PM34.0 °F17.1 °F50 %29.95 in10.0 miSW (230°)5.8 mph18.4 mphClear
10:54 PM34.0 °F17.1 °F50 %29.94 in10.0 miSSW (210°)4.6 mphClear
11:54 PM33.1 °F18.0 °F54 %29.92 in10.0 miCalmClear
Hourly data recorded from KROA, located miles away from Buchanan, Virginia







STORIES FROM OUR PARTNERS